This is the latest recevied weather packets stored in our database for station/object N5CNB-2. If no packets are shown the sender has not sent any weather packets the latest 10 day(s).
| Time | Temp. | Humidity | Pressure | Rain* | Wind** | Luminosity | Snow |
|---|---|---|---|---|---|---|---|
| 1777586459 | 23.89° C | 82% | 1008.8 hPa | 0 mm | - | - | - |
| 1777585554 | 23.89° C | 85% | 1008.9 hPa | 0 mm | - | - | - |
| 1777584658 | 22.78° C | 85% | 1009.5 hPa | 0 mm | - | - | - |
| 1777583753 | 22.22° C | 87% | 1009.6 hPa | 0 mm | - | - | - |
| 1777582857 | 21.67° C | 89% | 1010 hPa | 0 mm | - | - | - |
| 1777581952 | 22.22° C | 88% | 1010.3 hPa | 0 mm | - | - | - |
| 1777581052 | 22.78° C | 88% | 1010.9 hPa | 0 mm | - | - | - |
| 1777580169 | 23.33° C | 88% | 1011.3 hPa | 0 mm | - | - | - |
| 1777579257 | 23.89° C | 88% | 1011.9 hPa | 0 mm | - | - | - |
| 1777578353 | 22.22° C | 91% | 1011.6 hPa | 0 mm | - | - | - |
| 1777577456 | 21.11° C | 93% | 1011.6 hPa | 0 mm | - | - | - |
| 1777576554 | 21.11° C | 93% | 1011.3 hPa | 0 mm | - | - | - |
| 1777575652 | 21.11° C | 93% | 1011.2 hPa | 0 mm | - | - | - |
| 1777574754 | 21.11° C | 93% | 1011.3 hPa | 0 mm | - | - | - |
| 1777573855 | 21.11° C | 93% | 1011.5 hPa | 0 mm | - | - | - |
| 1777572954 | 20.56° C | 93% | 1011.7 hPa | 0 mm | - | - | - |
| 1777572051 | 21.11° C | 92% | 1012 hPa | 0 mm | - | - | - |
| 1777571153 | 21.67° C | 91% | 1012.2 hPa | 0 mm | - | - | - |
| 1777570252 | 22.22° C | 91% | 1012.2 hPa | 0 mm | - | - | - |
| 1777569351 | 22.78° C | 91% | 1012.5 hPa | 0 mm | - | - | - |
| 1777568454 | 21.67° C | 93% | 1012.4 hPa | 0 mm | - | - | - |
| 1777567552 | 21.11° C | 93% | 1012.1 hPa | 0 mm | - | - | - |
| 1777566657 | 21.11° C | 93% | 1012.1 hPa | 0 mm | - | - | - |
| 1777565754 | 21.11° C | 93% | 1012.1 hPa | 0 mm | - | - | - |
| 1777564853 | 21.11° C | 94% | 1012.1 hPa | 0 mm | - | - | - |
* Rain latest hour (hover to see other rain measurements)
** Current wind speed in m/s (hover to see current wind gust speed)